Flag for Zimbabwe Weather past 2 weeks in Harare, Zimbabwe

Now
70 °F

Scattered clouds.


Feels Like: 70 °F
Forecast: 56 / 76 °F
Wind: 8 mph from Northeast

Location: Harare Kutsaga Airport


UV Index: 7 (High)

Visibility: N/A


Pressure: 30.24 "Hg

Humidity: 57%

Dew point: 54 °F

Location of HarareLocation

Historic Weather in Harare

°F

Harare temperature yesterday

Maximum temperature yesterday: 68 °F (at 4:00 PM)
Minimum temperature yesterday: 54 °F (at 11:00 PM)
Average temperature yesterday: 60 °F

Past Weeks' High & Low Weather Summary

 TemperatureHumidityPressure
High84 °F (Apr 4, 1:00 PM)100% (Apr 6, 8:00 AM)30.36 "Hg (Apr 6, 8:00 AM)
Low52 °F (Apr 8, 4:00 AM)29% (Apr 4, 1:00 PM)30.01 "Hg (Apr 18, 9:00 AM)
Average64 °F76%30.26 "Hg
* Reported Apr 3 4:00 PM — Apr 18 4:00 PM, Harare, Weather by CustomWeather, © 2014

Note: Actual official high and low records may vary slightly from our data, if they occured in-between our weather recording intervals... More about our weather records

Advertising

Historic Weather Conditions — Data for Previous 24 hours

 ConditionsComfort  
Time TempWeatherWind HumidityBarometerVisibility
4:00 PM
Apr 18
72 °FPassing clouds.8 mph53%30.24 "HgN/A
3:00 PM70 °FPartly sunny.8 mph60%30.24 "HgN/A
1:00 PM72 °FPartly sunny.9 mph53%30.27 "HgN/A
12:00 PM72 °FPartly sunny.6 mph53%30.27 "HgN/A
11:00 AM70 °FPartly sunny.7 mph60%30.30 "HgN/A
10:00 AM70 °FScattered clouds.7 mph60%30.33 "HgN/A
9:00 AM64 °FPassing clouds.7 mph73%30.01 "HgN/A
8:00 AM59 °FPassing clouds.8 mph88%30.30 "HgN/A
7:00 AM55 °FPassing clouds.5 mph94%30.27 "HgN/A
6:00 AM52 °FPassing clouds.3 mph100%30.27 "HgN/A
5:00 AM55 °FPassing clouds.5 mph94%30.27 "HgN/A
2:00 AM54 °FPassing clouds.6 mph100%30.27 "HgN/A
1:00 AM52 °FPassing clouds.3 mph100%30.27 "HgN/A
12:00 AM54 °FPassing clouds.5 mph94%30.27 "HgN/A
11:00 PM
Apr 17
54 °FPassing clouds.6 mph100%30.27 "HgN/A
10:00 PM55 °FPassing clouds.6 mph94%30.27 "HgN/A
8:00 PM57 °FPassing clouds.7 mph94%30.27 "HgN/A
7:00 PM59 °FPassing clouds.7 mph88%30.24 "HgN/A
6:00 PM61 °FPassing clouds.6 mph83%30.21 "HgN/A
5:00 PM66 °FPassing clouds.7 mph68%30.21 "HgN/A
Weather by CustomWeather, © 2014

See weather overview